Temperature
22 23 23 23 23 23 23 23 22 22 22 22 22 22 22 21 20 20 20 20 19 19 18 18 17 17 17 17 16 16 16 16 16 15 15 15 15 15 15 15 15 15 14 14
23 23 23 22 22 22 22 22 22 22 22 22 22 21 22 21 20 20 20 20 19 19 18 17 17 17 17 16 16 16 16 15 15 15 15 15 15 15 15 15 15 15 14 14
23 23 22 22 22 22 22 22 22 22 21 22 21 21 22 21 20 19 19 19 19 18 18 17 17 17 16 16 16 16 16 15 15 15 15 15 15 15 15 15 15 15 14 14
22 22 22 22 22 22 22 22 22 21 22 22 21 21 22 21 21 20 19 18 18 18 17 17 17 16 16 16 16 16 16 15 15 15 15 15 15 15 14 14 15 15 14 14
22 22 22 22 22 22 22 21 21 21 22 22 22 22 22 21 21 20 19 18 17 17 17 16 16 16 16 16 16 16 16 15 15 15 15 15 15 14 14 14 14 14 14 14
22 22 22 22 22 21 21 21 21 21 22 21 22 21 21 21 20 20 19 18 17 17 16 16 16 16 16 16 16 16 16 15 15 15 15 15 14 14 14 14 14 14 14 14
21 22 21 21 21 21 21 22 21 21 21 21 21 21 21 20 20 19 18 18 17 16 16 16 16 16 16 16 16 16 15 15 15 15 15 15 14 14 14 14 14 14 14 14
21 21 21 21 21 21 21 22 21 21 21 21 21 21 21 20 18 17 17 17 17 16 16 15 15 15 15 16 16 15 15 15 15 15 15 15 14 14 14 14 14 14 14 14
21 21 21 20 21 22 21 21 21 21 21 21 21 21 20 19 19 18 17 16 16 16 15 15 15 15 15 15 15 15 15 15 15 15 15 14 14 14 14 14 14 14 14 13
21 20 21 20 21 20 21 21 21 21 20 20 21 21 20 19 18 18 17 16 16 15 15 15 15 15 15 15 15 15 15 15 15 14 14 14 14 14 13 13 13 13 13 13
20 20 20 20 20 20 20 19 20 20 20 20 20 21 20 19 18 18 17 16 15 15 14 14 14 14 14 15 15 15 15 15 14 14 14 14 14 14 13 13 13 13 13 13
19 20 20 20 20 19 20 20 20 20 20 20 20 20 19 18 18 17 16 15 14 14 14 14 14 14 14 14 14 14 14 14 14 14 14 14 14 14 13 13 13 13 13 13
19 20 20 20 19 19 19 19 19 20 20 19 19 19 18 18 17 16 15 15 14 14 13 13 13 13 14 14 14 14 14 14 14 14 14 14 13 13 13 13 13 13 12 12
18 20 19 19 20 19 19 18 18 19 19 19 19 19 18 17 16 15 15 14 14 13 13 13 13 13 13 13 13 13 13 13 13 13 13 13 13 13 13 12 12 12 12 12
18 19 19 19 19 18 18 18 18 18 19 19 19 18 18 17 16 15 14 13 13 13 12 12 12 12 12 13 13 13 13 12 12 12 13 13 12 12 12 12 12 12 12 12
18 18 19 18 18 18 17 18 18 18 18 18 18 17 17 16 15 14 14 13 12 12 11 11 11 12 12 12 12 12 12 12 12 12 12 12 12 12 12 12 12 11 11 11
17 18 18 18 18 17 17 17 17 17 17 17 17 17 16 15 14 14 13 12 12 11 11 11 11 11 11 11 11 11 12 11 11 11 11 12 11 11 11 11 11 11 11 11
17 17 17 18 17 17 18 17 17 16 16 16 16 16 15 14 13 12 12 12 11 11 11 11 11 11 11 11 11 11 11 11 11 11 11 11 11 11 11 11 11 11 10 10
16 17 17 17 17 17 17 16 15 16 16 15 15 15 14 13 13 13 11 11 11 11 10 10 10 10 10 10 10 10 10 10 10 10 10 10 11 10 10 10 10 10 10 10
15 16 17 16 16 17 17 16 15 16 16 15 14 14 13 13 14 14 11 10 10 10 10 10 10 10 10 10 10 10 10 10 10 10 10 10 10 10 10 10 10 10 10 9
15 15 15 16 16 17 15 14 14 15 16 14 13 13 13 13 14 12 11 10 10 10 10 9 9 9 9 9 9 9 9 9 9 9 9 9 9 9 9 9 9 9 9 9
16 16 16 16 16 16 14 14 14 15 13 13 12 12 12 12 11 11 10 10 9 9 9 9 9 9 9 9 8 8 9 9 8 9 9 9 9 9 8 8 8 8 8 8
14 15 15 15 15 14 12 13 12 12 12 12 11 11 11 10 10 10 10 9 9 9 9 9 8 8 8 8 8 8 8 8 8 8 8 8 8 8 8 8 8 8 8 7
14 12 13 14 14 13 11 11 11 11 11 11 10 10 10 10 10 9 9 9 9 8 8 8 8 8 8 8 8 8 8 8 7 7 7 7 7 7 7 7 7 7 7 7
13 12 13 13 13 12 11 10 10 10 10 10 10 10 9 9 9 9 9 8 8 8 8 8 8 8 7 7 7 7 7 7 7 7 7 7 7 6 6 6 6 6 6 6
12 12 12 13 12 12 11 10 10 9 9 9 9 9 9 9 9 8 8 8 8 8 8 7 7 7 7 7 7 7 7 7 6 6 6 6 6 6 6 6 6 6 6 6
Wind_Speed
3 5 5 4 5 4 3 4 3 2 1 2 3 3 3 2 3 5 5 6 5 6 5 5 6 6 6 6 5 5 5 4 3 3 2 2 2 2 1 1 0 0 1 1
6 5 3 3 4 5 6 5 3 1 1 2 2 3 3 2 3 4 4 4 4 4 4 4 5 6 7 7 6 6 5 5 4 3 3 2 2 2 1 1 1 1 1 1
5 2 4 5 6 6 6 5 3 2 1 4 3 3 3 2 2 1 2 3 3 4 5 5 6 6 6 7 7 6 6 6 5 4 3 2 2 1 1 2 1 1 2 2
4 3 5 5 5 5 5 3 4 4 4 3 3 3 2 2 2 1 1 2 2 3 4 4 5 6 7 7 7 7 7 6 6 5 4 4 3 3 3 2 2 1 2 2
3 3 4 5 4 5 2 2 4 4 5 4 4 4 2 3 2 1 0 0 1 1 3 4 5 5 5 6 6 6 7 7 7 6 6 5 4 3 2 2 2 2 2 2
3 3 3 3 2 3 4 5 5 5 5 5 4 5 1 1 1 1 1 1 0 0 1 2 3 3 3 4 5 5 6 7 7 7 7 7 6 5 4 4 3 3 2 2
4 4 3 3 4 5 5 5 4 4 4 3 1 4 1 2 3 2 2 1 1 0 1 1 1 1 2 3 4 5 6 7 7 7 7 7 7 6 6 5 4 4 3 3
4 5 4 3 4 4 6 6 4 3 3 2 3 4 2 3 3 3 2 2 1 1 0 0 1 2 2 3 4 5 6 6 6 7 7 7 6 5 5 5 4 4 3 4
4 3 3 2 3 4 5 5 4 4 4 4 4 3 2 2 3 4 4 3 3 3 2 1 1 1 2 2 3 5 5 5 5 6 6 6 6 5 5 5 5 4 4 3
4 4 3 3 5 2 2 3 4 4 4 4 5 5 3 1 1 2 3 4 4 3 3 2 1 1 2 2 2 4 4 5 5 5 5 4 5 5 6 5 5 4 4 4
5 5 4 5 5 5 5 5 4 4 5 5 5 2 1 0 1 2 2 3 3 3 3 2 1 1 1 1 1 3 3 4 4 4 4 4 4 4 5 5 5 5 5 4
3 4 6 5 3 2 4 5 6 6 5 5 5 2 3 1 1 1 2 3 3 3 3 3 2 1 1 1 1 1 2 2 3 3 3 4 4 4 4 4 4 5 5 5
3 4 5 5 5 5 5 4 5 6 6 7 7 3 3 1 1 2 2 2 3 3 3 3 3 2 1 1 0 0 0 1 1 2 2 3 3 4 4 4 4 4 5 6
3 5 7 7 4 3 5 6 7 8 8 8 9 8 3 2 3 3 2 3 3 3 3 3 3 3 2 2 1 1 0 0 0 0 1 2 2 3 4 4 3 4 4 5
3 6 7 7 5 5 7 8 9 11 11 10 9 8 6 4 4 3 2 2 3 4 4 4 4 3 2 2 1 1 1 1 0 0 1 2 2 3 3 3 3 3 4 4
3 5 6 7 5 5 7 8 9 10 10 10 9 8 5 4 3 3 2 2 2 3 4 4 4 4 3 2 2 1 1 1 1 0 1 1 2 2 3 3 3 3 4 4
3 5 5 6 4 6 8 8 8 7 7 7 8 6 2 2 2 2 2 1 2 3 4 4 4 3 4 3 2 2 1 1 1 1 1 1 2 2 3 3 3 4 4 4
6 6 4 5 5 8 2 1 3 5 5 4 4 3 2 2 2 2 1 1 2 2 3 3 4 4 4 3 3 2 1 1 1 2 2 2 2 3 3 3 3 4 4 5
6 6 4 5 7 7 3 2 2 5 5 3 4 3 1 1 1 2 0 1 2 2 3 3 4 4 4 4 3 3 2 2 2 2 3 3 3 3 4 4 4 4 4 5
4 5 6 6 6 6 1 1 2 5 5 1 2 2 2 2 4 2 1 2 2 2 3 3 4 4 4 4 3 3 3 3 3 4 4 4 4 4 4 5 5 5 5 5
4 5 8 9 8 5 2 2 2 4 2 1 1 2 3 4 4 2 1 1 2 2 3 3 3 4 4 4 4 4 4 4 5 5 5 4 4 4 4 5 4 5 5 5
5 5 6 6 7 4 3 3 3 2 2 0 1 2 2 3 2 1 1 2 2 3 3 3 3 3 3 3 4 4 4 5 5 5 4 4 5 4 4 4 4 4 4 5
4 4 3 4 3 2 2 2 2 2 2 2 2 2 2 3 3 3 2 2 3 3 3 3 3 3 3 4 4 5 5 5 5 5 5 5 5 4 4 4 4 4 4 4
3 2 4 5 4 3 2 2 2 3 3 3 2 2 3 3 3 3 3 3 3 4 4 3 4 4 5 5 5 5 5 5 4 5 5 4 4 4 4 3 3 4 4 4
4 3 5 7 5 4 3 4 3 3 3 2 2 3 3 3 3 3 3 3 3 4 4 4 4 5 6 5 5 5 5 4 4 5 5 4 4 4 4 4 4 5 4 4
5 6 6 6 5 5 6 4 4 3 3 3 3 3 3 3 3 3 3 3 4 4 4 4 5 6 6 5 5 5 4 4 4 4 4 4 4 4 4 4 4 3 4 4
Wind_Direction
181 196 199 203 214 223 213 213 224 240 226 241 244 257 267 222 215 227 214 211 214 219 211 195 191 192 192 192 197 193 187 183 179 181 192 194 193 191 189 197 218 218 213 175
188 199 200 180 186 202 214 217 223 212 174 241 248 263 267 240 224 229 225 218 214 215 200 195 199 198 199 198 203 202 198 191 188 192 200 202 196 209 200 207 205 228 234 218
204 173 167 183 188 202 219 226 233 246 231 213 239 245 217 182 179 213 243 238 229 225 213 201 203 202 204 203 206 208 203 198 196 195 195 182 173 190 198 215 217 231 244 235
213 200 194 205 205 221 223 223 230 229 238 228 237 259 216 180 160 178 239 242 242 231 222 208 210 207 212 212 209 209 204 203 198 195 200 199 206 216 228 231 225 218 224 237
195 197 205 216 218 224 216 172 208 227 240 245 229 249 213 156 206 223 240 265 248 237 225 216 217 215 217 213 208 208 204 204 201 202 204 215 224 230 230 230 227 231 224 233
213 200 226 227 195 187 166 185 195 213 234 241 239 242 235 162 288 8 32 18 22 283 219 226 222 213 206 205 205 205 201 204 205 208 212 219 224 227 224 228 230 231 222 221
204 191 192 203 191 171 203 224 225 218 219 236 186 238 226 53 30 1 348 344 16 76 188 214 218 209 199 196 203 202 202 206 207 213 219 223 229 236 236 236 235 237 234 229
220 199 184 203 222 214 213 233 248 260 252 250 206 231 125 79 48 38 32 14 28 43 38 249 232 217 215 205 208 206 206 209 209 215 222 226 228 234 240 238 237 239 244 244
234 205 159 193 214 220 205 221 268 270 265 261 227 206 162 100 55 41 38 34 26 20 9 318 269 245 233 221 216 213 211 213 214 219 222 224 229 236 241 239 238 240 244 245
258 238 190 184 185 166 241 203 218 235 248 253 238 231 220 145 32 34 26 18 14 11 8 353 293 254 241 232 227 215 218 222 221 218 218 224 230 237 243 244 241 244 246 243
249 236 200 185 209 215 180 193 228 241 256 263 261 231 68 114 39 33 19 9 5 7 5 7 359 258 215 203 200 215 215 226 229 227 223 218 222 234 242 246 245 246 248 246
233 240 231 212 181 234 218 220 228 245 243 248 266 261 84 89 30 4 359 359 0 8 13 14 14 34 128 172 181 212 223 230 234 231 227 226 222 224 233 241 246 249 249 245
206 226 230 202 186 184 202 218 235 254 257 247 251 245 100 85 7 352 349 354 359 10 16 21 24 37 49 83 134 154 261 267 249 229 229 234 238 237 239 240 244 248 250 250
240 232 238 249 255 219 220 220 225 239 248 254 254 263 260 292 317 320 327 338 349 6 12 15 20 28 35 46 36 54 22 332 304 244 239 254 257 256 254 249 246 247 253 255
240 242 244 257 253 245 249 244 228 239 252 263 271 271 280 294 302 303 313 352 1 3 3 2 5 12 18 23 13 19 27 14 342 261 287 277 274 270 265 258 257 256 255 259
251 250 245 245 234 247 253 254 245 247 255 256 265 272 293 297 300 308 314 355 356 358 355 353 353 358 359 0 355 2 21 11 349 325 315 311 303 290 278 272 268 265 264 263
238 241 244 253 246 258 249 244 242 243 249 245 253 271 285 292 298 295 300 349 356 353 347 344 346 345 347 339 326 323 341 347 325 308 315 315 299 296 291 282 276 273 268 267
237 235 245 255 249 248 239 111 239 240 246 239 255 276 264 281 282 263 215 318 337 345 340 338 337 339 342 335 323 314 306 303 304 310 319 318 307 300 297 288 280 276 271 267
227 228 232 237 249 262 232 191 230 239 248 224 252 265 273 332 241 208 289 313 316 324 328 329 327 328 329 330 318 304 297 292 297 308 311 310 303 297 293 288 285 282 279 274
195 222 231 232 247 255 204 101 276 249 239 208 260 245 223 231 260 268 324 299 301 313 326 331 324 323 327 326 312 297 298 299 298 299 299 300 297 293 291 292 292 290 280 273
190 207 224 237 246 257 57 92 192 229 303 68 235 221 213 242 296 325 257 276 291 298 308 318 317 318 318 315 302 288 294 302 307 305 300 297 293 292 290 292 293 291 286 282
218 218 222 229 239 245 98 146 208 307 11 273 244 238 244 283 325 334 241 260 279 287 288 296 305 313 313 310 298 289 294 306 308 303 300 299 296 295 291 289 289 288 286 280
230 245 254 235 251 15 140 217 296 339 307 294 259 253 254 266 283 278 266 268 277 282 285 285 291 300 300 298 294 291 297 305 308 304 297 294 294 294 288 286 286 287 288 287
232 254 243 248 252 274 269 278 302 308 304 298 272 258 254 263 271 270 265 264 276 283 284 282 284 290 295 297 293 291 293 295 295 296 294 291 289 292 292 289 284 284 287 288
246 216 238 249 260 275 261 276 292 305 312 305 287 275 268 264 265 265 263 263 272 280 280 278 280 286 293 299 298 299 296 294 292 294 296 295 292 288 286 286 287 282 283 292
226 226 236 254 255 254 265 274 276 279 283 281 287 285 278 264 258 258 266 272 275 280 285 286 287 291 295 295 294 297 297 293 289 290 293 298 296 290 286 284 291 309 285 301
Height
1510 1509 1509 1509 1510 1510 1512 1514 1516 1516 1517 1519 1518 1518 1518 1520 1522 1522 1523 1525 1526 1528 1530 1531 1533 1534 1535 1536 1538 1539 1540 1540 1541 1541 1542 1542 1543 1543 1544 1544 1544 1544 1544 1544
1508 1508 1509 1511 1512 1513 1513 1515 1515 1516 1517 1518 1517 1517 1516 1518 1520 1521 1522 1523 1525 1526 1528 1529 1531 1532 1533 1534 1536 1537 1538 1539 1539 1540 1541 1541 1542 1542 1543 1543 1543 1543 1543 1543
1506 1508 1510 1511 1512 1513 1512 1513 1515 1517 1517 1516 1517 1517 1514 1516 1519 1520 1521 1522 1523 1524 1525 1527 1528 1529 1531 1532 1534 1535 1536 1537 1538 1539 1540 1540 1541 1541 1541 1541 1541 1542 1542 1542
1507 1508 1510 1510 1510 1511 1513 1512 1514 1516 1516 1516 1517 1520 1512 1512 1516 1518 1520 1521 1521 1522 1524 1525 1526 1527 1528 1529 1531 1533 1534 1535 1536 1537 1538 1538 1539 1539 1540 1540 1540 1540 1540 1540
1507 1508 1509 1509 1509 1510 1511 1513 1513 1514 1514 1515 1514 1516 1512 1511 1513 1515 1517 1519 1520 1521 1522 1522 1524 1524 1526 1527 1529 1530 1532 1533 1534 1535 1536 1537 1538 1538 1539 1539 1539 1539 1539 1538
1507 1509 1509 1509 1510 1511 1512 1513 1513 1513 1512 1519 1513 1515 1515 1511 1513 1514 1517 1518 1519 1520 1521 1521 1522 1523 1524 1525 1526 1528 1529 1530 1531 1532 1534 1535 1535 1536 1537 1537 1537 1537 1537 1536
1507 1507 1509 1510 1510 1511 1511 1513 1517 1519 1519 1517 1512 1515 1514 1512 1514 1515 1516 1517 1518 1519 1519 1519 1520 1520 1521 1522 1523 1525 1526 1527 1528 1530 1531 1532 1533 1534 1535 1535 1535 1535 1534 1534
1510 1510 1507 1508 1508 1509 1509 1509 1517 1522 1519 1513 1513 1513 1511 1513 1516 1517 1517 1517 1518 1518 1518 1518 1518 1519 1519 1520 1521 1523 1524 1525 1526 1527 1528 1529 1530 1531 1532 1533 1533 1532 1532 1532
1508 1509 1508 1509 1509 1508 1509 1510 1509 1511 1512 1516 1510 1508 1511 1512 1514 1515 1516 1517 1517 1517 1517 1517 1517 1517 1518 1518 1519 1520 1521 1522 1523 1525 1526 1526 1527 1528 1529 1530 1530 1530 1530 1530
1505 1509 1507 1509 1509 1511 1509 1509 1511 1513 1518 1517 1511 1508 1509 1511 1512 1514 1516 1516 1517 1517 1516 1516 1515 1515 1516 1516 1517 1518 1519 1520 1521 1522 1523 1524 1524 1525 1526 1526 1527 1527 1527 1527
1506 1507 1508 1508 1508 1508 1511 1514 1511 1510 1510 1514 1514 1510 1506 1509 1512 1514 1516 1517 1517 1516 1516 1515 1514 1514 1515 1515 1516 1516 1517 1518 1519 1519 1520 1521 1521 1522 1523 1523 1523 1523 1523 1523
1508 1505 1506 1506 1507 1509 1507 1508 1510 1514 1511 1510 1511 1512 1507 1510 1513 1515 1516 1517 1516 1516 1515 1514 1513 1513 1513 1513 1514 1514 1515 1516 1516 1517 1517 1518 1519 1519 1519 1520 1520 1520 1520 1520
1508 1506 1508 1508 1511 1510 1509 1510 1510 1509 1509 1509 1512 1512 1508 1511 1513 1514 1515 1515 1515 1515 1514 1513 1512 1512 1512 1512 1513 1513 1513 1513 1514 1515 1515 1516 1516 1516 1516 1516 1516 1516 1516 1516
1509 1503 1506 1509 1504 1504 1508 1510 1511 1510 1509 1507 1505 1507 1508 1510 1512 1514 1514 1514 1514 1514 1513 1513 1512 1511 1511 1511 1511 1512 1511 1512 1512 1512 1513 1513 1513 1513 1513 1513 1513 1513 1513 1512
1508 1503 1502 1502 1503 1505 1506 1507 1508 1508 1505 1506 1503 1505 1507 1509 1512 1513 1514 1514 1513 1513 1512 1511 1511 1510 1510 1510 1510 1510 1510 1510 1510 1510 1511 1511 1511 1511 1510 1510 1509 1509 1509 1508
1507 1504 1502 1503 1503 1505 1506 1505 1505 1505 1504 1504 1505 1505 1507 1509 1511 1512 1512 1512 1512 1512 1511 1511 1510 1510 1509 1509 1509 1509 1508 1508 1508 1508 1508 1508 1508 1508 1507 1507 1506 1506 1505 1505
1506 1504 1504 1502 1502 1504 1505 1502 1503 1503 1503 1503 1504 1505 1507 1508 1510 1511 1511 1511 1511 1511 1510 1510 1509 1508 1508 1508 1507 1507 1506 1506 1506 1506 1506 1506 1505 1505 1505 1504 1503 1502 1502 1501
1505 1504 1503 1502 1504 1508 1500 1501 1501 1502 1503 1504 1504 1505 1507 1508 1510 1510 1510 1510 1510 1509 1509 1508 1508 1507 1506 1506 1506 1505 1505 1504 1504 1504 1503 1503 1502 1502 1501 1501 1500 1499 1498 1497
1505 1504 1503 1503 1503 1497 1499 1501 1502 1502 1502 1504 1504 1505 1507 1508 1508 1508 1509 1509 1509 1508 1508 1507 1506 1505 1504 1504 1504 1503 1503 1502 1502 1501 1500 1500 1500 1499 1498 1497 1496 1496 1494 1493
1505 1504 1503 1502 1504 1500 1497 1500 1501 1502 1500 1502 1502 1503 1505 1506 1504 1504 1507 1507 1507 1507 1506 1505 1504 1504 1503 1502 1501 1501 1500 1499 1499 1498 1497 1497 1497 1496 1495 1494 1493 1492 1490 1489
1502 1503 1502 1501 1500 1493 1498 1501 1502 1503 1499 1501 1501 1502 1503 1504 1503 1504 1504 1505 1505 1505 1504 1504 1503 1502 1501 1500 1499 1498 1498 1497 1496 1495 1494 1494 1493 1492 1491 1490 1489 1487 1486 1485
1497 1498 1498 1498 1499 1498 1500 1501 1501 1500 1500 1500 1501 1502 1503 1503 1503 1502 1503 1503 1503 1502 1502 1501 1500 1499 1498 1498 1497 1496 1495 1494 1493 1491 1491 1490 1489 1488 1487 1486 1484 1483 1482 1481
1498 1498 1495 1496 1497 1498 1499 1500 1501 1501 1500 1500 1500 1500 1501 1501 1501 1501 1501 1501 1500 1500 1499 1499 1498 1497 1496 1495 1494 1493 1491 1490 1489 1488 1487 1486 1485 1484 1483 1482 1481 1479 1478 1477
1498 1501 1499 1497 1496 1498 1499 1499 1499 1499 1499 1499 1499 1499 1499 1499 1499 1498 1498 1498 1498 1498 1497 1496 1495 1494 1493 1492 1491 1489 1488 1487 1486 1485 1484 1483 1482 1481 1480 1478 1477 1476 1475 1473
1498 1500 1498 1495 1496 1498 1498 1498 1498 1498 1497 1497 1497 1497 1497 1497 1496 1496 1496 1495 1495 1494 1494 1493 1492 1491 1490 1489 1487 1486 1485 1483 1482 1481 1480 1479 1478 1477 1476 1475 1474 1473 1471 1471
1497 1497 1496 1493 1495 1496 1496 1496 1496 1496 1495 1495 1495 1494 1494 1494 1494 1493 1493 1493 1492 1491 1491 1490 1489 1488 1487 1485 1484 1483 1482 1480 1479 1478 1476 1475 1474 1473 1472 1471 1470 1468 1468 1466